Location: Boca do Mato
(22.9085°S, 43.2930°W)
Time: 01:24:50
(UTC+00:00)

NOSS 3-1 (C) - Visible Passes

Search period start: 24 October 2020 00:00
Search period end: 03 November 2020 00:00
Orbit: 743 x 1466 km, 63.4° (Epoch: 09 October)

Date Brightness Start Highest point End Pass type
(mag) Time Alt. Az. Time Alt. Az. Time Alt. Az.
24 Oct 4.4 22:16:09 10° NNW 22:25:13 81° WSW 22:33:41 10° SSE visible
25 Oct 6.7 00:12:27 10° W 00:17:01 15° SW 00:21:24 10° SSW visible
25 Oct 4.3 21:30:57 10° NNW 21:39:51 65° ENE 21:48:16 10° SE visible
25 Oct 6.2 23:24:14 10° WNW 23:31:12 25° SW 23:37:45 10° S visible
26 Oct 5.8 07:09:16 10° S 07:13:33 21° SE 07:17:30 10° ENE visible
26 Oct 5.6 22:37:17 10° NW 22:45:33 40° WSW 22:53:17 10° S visible
27 Oct 6.4 06:26:16 10° SSE 06:27:48 11° SE 06:29:16 10° ESE visible
27 Oct 4.8 21:51:08 10° NW 22:00:03 64° WSW 22:08:24 10° SSE visible
27 Oct 7.0 23:50:20 10° WSW 23:52:11 11° SW 23:54:00 10° SW visible
28 Oct 3.8 07:28:20 10° SSW 07:33:56 60° ESE 07:38:58 10° NE visible
28 Oct 6.7 23:00:22 10° W 23:06:14 19° SW 23:11:49 10° S visible
29 Oct 5.1 06:43:31 10° S 06:48:30 30° ESE 06:53:00 10° ENE visible
29 Oct 6.1 22:12:51 10° WNW 22:20:30 31° WSW 22:27:41 10° S visible
30 Oct 6.0 05:59:26 10° SSE 06:02:51 16° SE 06:06:03 10° E visible
30 Oct 5.4 21:26:18 10° NW 21:34:57 50° WSW 21:43:00 10° SSE visible
31 Oct 3.0 07:03:03 10° SSW 07:08:43 88° ESE 07:13:48 10° NNE visible
31 Oct 6.9 22:37:04 10° W 22:41:20 14° SW 22:45:28 10° SSW visible
01 Nov 4.2 06:17:58 10° SSW 06:23:23 43° ESE 06:28:14 10° NE visible
01 Nov 6.6 21:48:41 10° WNW 21:55:30 24° SW 22:01:56 10° S visible
02 Nov 5.4 05:33:26 10° S 05:37:51 22° SE 05:41:54 10° ENE visible
02 Nov 3.8 07:23:50 10° SW 07:28:30 29° WNW 07:32:52 10° N visible
